Weather History for KHBG - December, 2009

Change the Weather History Date:

Tuesday, December 29, 2009

  Actual Average Record
Temperature  
Mean Temperature 39 °F 49 °F  
Max Temperature 53 °F 60 °F 79 °F (1971)
Min Temperature 25 °F 38 °F 22 °F (1961)
Degree Days  
Heating Degree Days 26 16  
Month to date heating degree days 494 425  
Since 1 July heating degree days 866 753  
Cooling Degree Days 0 0  
Month to date cooling degree days 1 12  
Year to date cooling degree days 2640 2402  
Moisture  
Dew Point 30 °F    
Average Humidity 68    
Maximum Humidity 100    
Minimum Humidity 35    
Precipitation  
Precipitation T in 0.14 in 1.79 in (1970)
Month to date precipitation 16.16 4.64  
Year to date precipitation 66.71 58.90  
Sea Level Pressure  
Sea Level Pressure 30.36 in    
Wind  
Wind Speed 1 mph (NE)    
Max Wind Speed 8 mph    
Max Gust Speed 10 mph    
Visibility 10 miles    
Events      
T = Trace of Precipitation, MM = Missing Value Source: NWS Daily Summary

Daily Weather History Graph

Daily Weather History Graph

Search for Another Location

Airport or City:

Trip Planner

Search our weather history database for the weather conditions in past years. The results will help you decide how hot, cold, wet, or windy it might be!

Date:

Astronomy

Dec. 29, 2009 Rise Set
Actual Time 6:55 AM CST 5:03 PM CST
Civil Twilight 6:28 AM CST 5:30 PM CST
Nautical Twilight 5:58 AM CST 6:00 PM CST
Astronomical Twilight 5:28 AM CST 6:30 PM CST
Moon 2:55 PM CST (12/29) 4:42 AM CST (12/29)
Length of Visible Light 11h 01m
Length of Day
10h 08m
Waxing Gibbous, 94% of the Moon is Illuminated
Dec 29
Waxing Gibbous
Dec 31
Full
Jan 7
Last Quarter
Jan 15
New
Jan 23
First Quarter

Hourly Weather History & Observations

Time (CST) Temp. Windchill Dew Point Humidity Pressure Visibility Wind Dir Wind Speed Gust Speed Precip Events Conditions
12:53 AM 30.0 °F - 25.0 °F 82% 30.39 in 10.0 mi Calm Calm - N/A   Clear
1:53 AM 28.9 °F - 25.0 °F 85% 30.38 in 10.0 mi Calm Calm - N/A   Clear
2:53 AM 28.0 °F - 25.0 °F 88% 30.39 in 10.0 mi Calm Calm - N/A   Clear
3:53 AM 27.0 °F - 25.0 °F 92% 30.38 in 10.0 mi Calm Calm - N/A   Clear
4:53 AM 26.1 °F - 24.1 °F 92% 30.37 in 10.0 mi Calm Calm - N/A   Clear
5:53 AM 27.0 °F - 24.1 °F 89% 30.38 in 10.0 mi Calm Calm - N/A   Clear
6:53 AM 25.0 °F - 24.1 °F 96% 30.38 in 10.0 mi Calm Calm - N/A   Clear
7:53 AM 30.0 °F - 27.0 °F 88% 30.41 in 10.0 mi Calm Calm - N/A   Clear
8:53 AM 37.0 °F - 28.0 °F 70% 30.43 in 10.0 mi Calm Calm - N/A   Clear
9:53 AM 42.1 °F 40.2 °F 28.9 °F 60% 30.43 in 10.0 mi East 3.5 mph - N/A   Clear
10:53 AM 46.0 °F 43.1 °F 30.0 °F 54% 30.41 in 10.0 mi East 5.8 mph - N/A   Clear
11:53 AM 48.9 °F - 28.9 °F 46% 30.38 in 10.0 mi Calm Calm - N/A   Clear
12:53 PM 50.0 °F - 28.9 °F 44% 30.35 in 10.0 mi NW 3.5 mph - N/A   Clear
1:53 PM 51.1 °F - 28.0 °F 41% 30.33 in 10.0 mi Calm Calm - N/A   Clear
2:53 PM 53.1 °F - 27.0 °F 37% 30.32 in 10.0 mi NNE 5.8 mph - N/A   Clear
3:53 PM 52.0 °F - 28.0 °F 40% 30.33 in 10.0 mi Calm Calm - 0.00 in   Clear
4:53 PM 48.9 °F - 30.0 °F 48% 30.30 in 10.0 mi East 3.5 mph - N/A   Clear
5:53 PM 41.0 °F - 34.0 °F 76% 30.33 in 10.0 mi Calm Calm - N/A   Clear
6:53 PM 39.9 °F - 35.1 °F 83% 30.33 in 10.0 mi Calm Calm - N/A   Clear
7:53 PM 41.0 °F - 36.0 °F 82% 30.35 in 10.0 mi Calm Calm - N/A   Partly Cloudy
8:53 PM 42.1 °F - 37.0 °F 82% 30.32 in 10.0 mi Calm Calm - N/A   Overcast
9:53 PM 42.1 °F - 37.0 °F 82% 30.33 in 10.0 mi Calm Calm - N/A   Overcast
10:53 PM 43.0 °F - 37.0 °F 80% 30.33 in 10.0 mi Calm Calm - N/A   Overcast
11:53 PM 43.0 °F - 37.9 °F 82% 30.33 in 10.0 mi Calm Calm - N/A   Overcast